| time (UTC) | temp C | wind direction | speed KPH | gust KPH | rain 1hr cm | rain 24hr cm | rain mn cm | humidity % | barometer mb |
| 20260504110348 | 21 | 89 | 3.2 | 6.4 | 0.00 | 0.00 | 0.00 | 43 | 1012.9 |
| 20260504100345 | 20 | 28 | 3.2 | 6.4 | 0.00 | 0.00 | 0.00 | 46 | 1013.4 |
| 20260504081339 | 16 | 98 | 3.2 | 3.2 | 0.00 | 0.00 | 0.00 | 65 | 1014.1 |
| 20260504080335 | 15 | 76 | 0.0 | 6.4 | 0.00 | 0.00 | 0.00 | 67 | 1014.3 |
| 20260504070332 | 13 | 100 | 4.8 | 4.8 | 0.00 | 0.00 | 0.00 | 75 | 1014.1 |
| 20260504050327 | 8 | 91 | 6.4 | 6.4 | 0.00 | 0.00 | 0.00 | 83 | 1014.5 |
| 20260504045330 | 8 | 84 | 9.7 | 11.3 | 0.00 | 0.00 | 0.00 | 86 | 1014.6 |
| 20260504044323 | 8 | 52 | 4.8 | 8.0 | 0.00 | 0.00 | 0.00 | 85 | 1014.5 |
| 20260504043322 | 8 | 92 | 8.0 | 11.3 | 0.00 | 0.00 | 0.00 | 85 | 1014.3 |
| 20260504042323 | 8 | 115 | 6.4 | 8.0 | 0.00 | 0.00 | 0.00 | 85 | 1014.3 |
| 20260504041323 | 8 | 89 | 6.4 | 9.7 | 0.00 | 0.00 | 0.00 | 85 | 1014.2 |
| 20260504040322 | 8 | 98 | 8.0 | 9.7 | 0.00 | 0.00 | 0.00 | 86 | 1014.5 |
| 20260504035319 | 8 | 106 | 8.0 | 11.3 | 0.00 | 0.00 | 0.00 | 85 | 1014.4 |
| 20260504034319 | 7 | 116 | 8.0 | 11.3 | 0.00 | 0.00 | 0.00 | 86 | 1014.4 |
| 20260504033319 | 8 | 102 | 9.7 | 9.7 | 0.00 | 0.00 | 0.00 | 85 | 1014.4 |
| 20260504032318 | 8 | 110 | 9.7 | 14.5 | 0.00 | 0.00 | 0.00 | 86 | 1014.6 |
| 20260504031318 | 7 | 99 | 9.7 | 12.9 | 0.00 | 0.00 | 0.00 | 86 | 1014.7 |
| 20260504030315 | 8 | 95 | 6.4 | 9.7 | 0.00 | 0.00 | 0.00 | 86 | 1014.5 |
| 20260504025316 | 7 | 115 | 6.4 | 14.5 | 0.00 | 0.00 | 0.00 | 87 | 1014.8 |
| 20260504024316 | 8 | 113 | 8.0 | 12.9 | 0.00 | 0.00 | 0.00 | 85 | 1015.0 |
| 20260504023315 | 8 | 97 | 6.4 | 9.7 | 0.00 | 0.00 | 0.00 | 83 | 1014.8 |
| 20260504022315 | 8 | 89 | 11.3 | 12.9 | 0.00 | 0.00 | 0.00 | 83 | 1014.6 |
| 20260504021313 | 8 | 97 | 6.4 | 8.0 | 0.00 | 0.00 | 0.00 | 85 | 1014.9 |
| 20260504020314 | 8 | 95 | 6.4 | 8.0 | 0.00 | 0.00 | 0.00 | 85 | 1014.8 |
| 20260504015310 | 9 | 99 | 8.0 | 8.0 | 0.00 | 0.00 | 0.00 | 79 | 1014.9 |
| 20260504014310 | 9 | 95 | 4.8 | 9.7 | 0.00 | 0.00 | 0.00 | 80 | 1014.9 |
| 20260504013311 | 10 | 95 | 8.0 | 8.0 | 0.00 | 0.00 | 0.00 | 77 | 1014.9 |
| 20260504012311 | 11 | 92 | 4.8 | 4.8 | 0.00 | 0.00 | 0.00 | 74 | 1015.0 |
| 20260504011310 | 11 | 91 | 8.0 | 11.3 | 0.00 | 0.00 | 0.00 | 73 | 1014.9 |
| 20260504010306 | 10 | 94 | 8.0 | 8.0 | 0.00 | 0.00 | 0.00 | 79 | 1014.8 |
| 20260504005307 | 9 | 92 | 8.0 | 9.7 | 0.00 | 0.00 | 0.00 | 81 | 1014.9 |
| 20260504004307 | 9 | 93 | 6.4 | 9.7 | 0.00 | 0.00 | 0.00 | 80 | 1014.9 |
| 20260504003307 | 10 | 95 | 4.8 | 6.4 | 0.00 | 0.00 | 0.00 | 76 | 1014.9 |
| 20260504002306 | 10 | 97 | 11.3 | 11.3 | 0.00 | 0.00 | 0.00 | 76 | 1014.9 |
| 20260504001305 | 11 | 94 | 8.0 | 8.0 | 0.00 | 0.00 | 0.00 | 73 | 1015.1 |
| 20260504000304 | 11 | 92 | 6.4 | 9.7 | 0.00 | 0.00 | 0.00 | 72 | 1015.0 |
| 20260503235304 | 11 | 96 | 9.7 | 9.7 | 0.00 | 0.00 | 0.00 | 75 | 1015.1 |
| 20260503234305 | 11 | 93 | 6.4 | 6.4 | 0.00 | 0.00 | 0.00 | 74 | 1015.0 |
| 20260503233304 | 11 | 93 | 8.0 | 8.0 | 0.00 | 0.00 | 0.00 | 72 | 1015.2 |
| 20260503232300 | 12 | 103 | 3.2 | 8.0 | 0.00 | 0.00 | 0.00 | 71 | 1015.1 |
| 20260503231300 | 12 | 95 | 6.4 | 9.7 | 0.00 | 0.00 | 0.00 | 70 | 1015.2 |
| 20260503230301 | 12 | 95 | 8.0 | 9.7 | 0.00 | 0.00 | 0.00 | 70 | 1015.5 |
| 20260503225302 | 12 | 106 | 4.8 | 4.8 | 0.00 | 0.00 | 0.00 | 67 | 1015.3 |
| 20260503224300 | 12 | 98 | 3.2 | 4.8 | 0.00 | 0.00 | 0.00 | 66 | 1015.3 |
| 20260503223257 | 12 | 99 | 3.2 | 6.4 | 0.00 | 0.00 | 0.00 | 65 | 1015.2 |
| 20260503222257 | 12 | 100 | 4.8 | 9.7 | 0.00 | 0.00 | 0.00 | 67 | 1015.3 |
| 20260503221257 | 12 | 87 | 8.0 | 11.3 | 0.00 | 0.00 | 0.00 | 66 | 1015.1 |
| 20260503220257 | 12 | 96 | 6.4 | 8.0 | 0.00 | 0.00 | 0.00 | 64 | 1015.2 |
| 20260503215257 | 12 | 99 | 6.4 | 6.4 | 0.00 | 0.00 | 0.00 | 66 | 1015.5 |
| 20260503214255 | 12 | 102 | 6.4 | 6.4 | 0.00 | 0.00 | 0.00 | 69 | 1015.6 |
| 20260503213255 | 12 | 97 | 8.0 | 9.7 | 0.00 | 0.00 | 0.00 | 74 | 1015.6 |
| 20260503212255 | 12 | 100 | 6.4 | 8.0 | 0.00 | 0.00 | 0.00 | 72 | 1015.3 |
| 20260503211255 | 12 | 96 | 6.4 | 6.4 | 0.00 | 0.00 | 0.00 | 70 | 1015.3 |
| 20260503210255 | 12 | 96 | 6.4 | 8.0 | 0.00 | 0.00 | 0.00 | 70 | 1015.2 |
| 20260503205250 | 12 | 103 | 6.4 | 8.0 | 0.00 | 0.00 | 0.00 | 71 | 1015.5 |
| 20260503204251 | 12 | 94 | 6.4 | 6.4 | 0.00 | 0.00 | 0.00 | 72 | 1015.4 |
| 20260503203250 | 12 | 99 | 6.4 | 9.7 | 0.00 | 0.00 | 0.00 | 72 | 1015.4 |
| 20260503202250 | 12 | 99 | 6.4 | 8.0 | 0.00 | 0.00 | 0.00 | 74 | 1015.5 |
| 20260503201250 | 12 | 102 | 3.2 | 4.8 | 0.00 | 0.00 | 0.00 | 74 | 1015.4 |
| 20260503200247 | 12 | 96 | 4.8 | 6.4 | 0.00 | 0.00 | 0.00 | 72 | 1015.2 |
| 20260503195247 | 13 | 97 | 4.8 | 4.8 | 0.00 | 0.00 | 0.00 | 72 | 1015.3 |
| 20260503194248 | 13 | 99 | 4.8 | 6.4 | 0.00 | 0.00 | 0.00 | 72 | 1015.0 |
| 20260503193247 | 13 | 95 | 8.0 | 8.0 | 0.00 | 0.00 | 0.00 | 71 | 1015.0 |
| 20260503192247 | 13 | 95 | 4.8 | 6.4 | 0.00 | 0.00 | 0.00 | 71 | 1014.9 |
| 20260503191243 | 13 | 93 | 4.8 | 6.4 | 0.00 | 0.00 | 0.00 | 70 | 1014.9 |
| 20260503190243 | 13 | 92 | 3.2 | 6.4 | 0.00 | 0.00 | 0.00 | 70 | 1014.8 |
| 20260503185244 | 13 | 97 | 4.8 | 6.4 | 0.00 | 0.00 | 0.00 | 70 | 1014.6 |
| 20260503184244 | 13 | 104 | 3.2 | 6.4 | 0.00 | 0.00 | 0.00 | 69 | 1014.9 |
| 20260503183243 | 13 | 130 | 3.2 | 3.2 | 0.00 | 0.00 | 0.00 | 68 | 1014.6 |
| 20260503182240 | 14 | 93 | 3.2 | 6.4 | 0.00 | 0.00 | 0.00 | 67 | 1014.5 |
| 20260503181241 | 14 | 143 | 1.6 | 6.4 | 0.00 | 0.00 | 0.00 | 67 | 1014.7 |
| 20260503180241 | 14 | 193 | 1.6 | 6.4 | 0.00 | 0.00 | 0.00 | 66 | 1014.7 |
| 20260503175240 | 15 | 73 | 3.2 | 4.8 | 0.00 | 0.00 | 0.00 | 65 | 1014.5 |
| 20260503174240 | 15 | 335 | 3.2 | 4.8 | 0.00 | 0.00 | 0.00 | 63 | 1014.4 |
| 20260503173237 | 15 | 46 | 1.6 | 4.8 | 0.00 | 0.00 | 0.00 | 62 | 1014.6 |
| 20260503172237 | 15 | 87 | 0.0 | 6.4 | 0.00 | 0.00 | 0.00 | 62 | 1014.7 |
| 20260503171237 | 15 | 5 | 3.2 | 6.4 | 0.00 | 0.00 | 0.00 | 61 | 1014.9 |
| 20260503170237 | 16 | 315 | 3.2 | 6.4 | 0.00 | 0.00 | 0.00 | 58 | 1014.7 |
| 20260503150229 | 22 | 324 | 6.4 | 8.0 | 0.00 | 0.00 | 0.00 | 36 | 1013.0 |
| 20260503140225 | 22 | 38 | 0.0 | 4.8 | 0.00 | 0.00 | 0.00 | 43 | 1013.4 |
| 20260503131221 | 23 | 37 | 1.6 | 4.8 | 0.00 | 0.00 | 0.00 | 38 | 1013.8 |
| 20260503130221 | 22 | 0 | 0.0 | 3.2 | 0.00 | 0.00 | 0.00 | 39 | 1013.8 |